sat.trackr.live / text

‹ back to catalog

ONEWEB-0273

NORAD 48991 · 2021-060AA

PAYLOAD ACTIVE UNKNOWN

§ Identity

Operator
Country
UK
Launch date
2021-07-01
Launch site
VOSTO
Launch vehicle
Mass (kg)
RCS (m²)

Purposes: comms

External: N2YO · Heavens-Above · Gunter

§ Orbital elements

Epoch: 2026-05-25T04:30:51.554016Z

Period
109.37 min
Inclination
87.9108°
Eccentricity
0.0001869
Mean motion
13.16593730 rev/d
Perigee alt
1,196.3 km
Apogee alt
1,199.2 km
Semi-major
7,575.9 km
B*
-2.0604e-5
RAAN
233.3497°
Arg perigee
99.2786°
Mean anomaly
260.8557°
Rev number
23,656

§ Raw data

ONEWEB-02731 48991U 21060AA  26145.18809669  .00000005  00000+0 -20604-4 0  99962 48991  87.9108 233.3497 0001869  99.2786 260.8557 13.16593730236565

JSON: /api/v1/satellites/48991 · /tle

For live sub-satellite position, see the globe view (requires WebGL).

§ Visibility from observer

Set your observer location to see the next 7 days of passes ≥ 10°. The values pass through the URL so the page stays shareable.

No JS? Fill the form by hand. The geolocation button needs JavaScript.